Regional Weather Roundup
Issued by NWS Charleston, WV

Home | Current Version | Previous Version | Text Only | Print | Product List | Glossary On
Versions: 1 2 3 4 5 6 7 8 9 10 11 12 13 14 15 16 17 18 19 20 21 22 23 24 25 26 27 28
000
ASUS41 KRLX 301210
RWRRLX
West Virginia Regional Weather Roundup
National Weather Service Charleston WV
800 AM EDT THU OCT 30 2014

Note: "fair" indicates few or no clouds below 12,000 feet with no
significant weather and/or obstructions to visibility.

WVZ003-301300-
Northern Panhandle of West Virginia

CITY           SKY/WX    TMP DP  RH WIND       PRES   REMARKS
WHEELING       CLEAR     36  33  89 W3        30.10R
$$

WVZ009-301300-
Northwest West Virginia

CITY           SKY/WX    TMP DP  RH WIND       PRES   REMARKS
PARKERSBURG    PTCLDY    40  35  83 CALM      30.16R
$$

WVZ006-301300-
Western West Virginia

CITY           SKY/WX    TMP DP  RH WIND       PRES   REMARKS
HUNTINGTON     CLOUDY    37  36  96 CALM      30.14R
$$

WVZ015-301300-
West Central West Virginia

CITY           SKY/WX    TMP DP  RH WIND       PRES   REMARKS
CHARLESTON     CLOUDY    40  38  93 CALM      30.13R
$$

WVZ022-031-301300-
North Central West Virginia

CITY           SKY/WX    TMP DP  RH WIND       PRES   REMARKS
CLARKSBURG     CLOUDY    43  36  76 CALM      30.10S
MORGANTOWN     CLOUDY    45  34  65 W3        30.11R
$$

WVZ025-035-042-045-301300-
Southern West Virginia

CITY           SKY/WX    TMP DP  RH WIND       PRES   REMARKS
BECKLEY        CLEAR     34  30  85 CALM      30.09R
LOGAN          CLOUDY    37  36  93 CALM      30.11S FOG
BLUEFIELD      CLEAR     37  33  85 W3        30.08S
LEWISBURG      CLEAR     33  32  96 CALM      30.07S
$$

WVZ047-301300-
Northern Mountains of West Virginia

CITY           SKY/WX    TMP DP  RH WIND       PRES   REMARKS
ELKINS         CLOUDY    41  36  82 NW6       30.09R
$$

WVZ052-301300-
Eastern Panhandle of West Virginia

CITY           SKY/WX    TMP DP  RH WIND       PRES   REMARKS
MARTINSBURG    MOCLDY    44  33  65 W3        30.07R
PETERSBURG     CLOUDY    42  40  92 CALM      30.09R
$$



USA.gov is the U.S. government's official web portal to all federal, state and local government web resources and services.